AirNav   ProFlight Series 2 Aviation Headset
 
 1451 users online  

1M3 Ardmore Airport
Ardmore, Alabama, USA

GOING TO ARDMORE?


FAA INFORMATION EFFECTIVE 13 AUGUST 2020

Location

FAA Identifier: 1M3
Lat/Long: 34-58-44.7000N 086-52-59.8000W
34-58.745000N 086-52.996667W
34.9790833,-86.8832778
(estimated)
Elevation: 922 ft. / 281 m (estimated)
Variation: 00W (1985)
From city: 2 miles SW of ARDMORE, AL
Time zone: UTC -5 (UTC -6 during Standard Time)
Zip code: 35739

Airport Operations

Airport use: Open to the public
Activation date: 10/1964
Control tower: no
ARTCC: MEMPHIS CENTER
FSS: ANNISTON FLIGHT SERVICE STATION
NOTAMs facility: ANB (NOTAM-D service available)
Attendance: MON-FRI DAYLIGHT HOURS
Wind indicator: yes
Segmented circle: no

Airport Communications

CTAF: 122.9
HUNTSVILLE APPROACH: 125.6
HUNTSVILLE DEPARTURE: 125.6
WX AWOS-3 at GZS (14 nm NW): 118.275 (931-363-6760)
WX AWOS-3 at FYM (16 nm E): 135.275 (931-433-5916)
WX AWOS-3PT at MDQ (18 nm SE): 120.000 (256-829-1242)
WX ASOS at DCU (20 nm S): 118.375 (256-350-4270)
  • APCH/DEP SVC PRVDD BY MEMPHIS ARTCC ON FREQS 120.8/307.0 (HUNTSVILLE RCAG) WHEN HUNTSVILLE APCH CTL CLSD.

Nearby radio navigation aids

VOR radial/distance  VOR name  Freq  Var
RQZr310/16.4ROCKET VORTAC112.2002E
DCUr009/20.0DECATUR VOR/DME112.8001W
MSLr060/34.1MUSCLE SHOALS VORTAC116.5001E

Airport Services

Parking: tiedowns

Runway Information

Runway 1/19

Dimensions: 2700 x 100 ft. / 823 x 30 m
Surface: turf, in fair condition
Runway edge markings: RY 01/19 MARKINGS FADED.
RY 01/19 MARKED WITH ORANGE CONES, THLD AND TWY MARKED WITH WHITE CONES.
RUNWAY 1  RUNWAY 19
Latitude: 34-58.526242N34-58.962733N
Longitude: 086-53.050312W086-52.943867W
Elevation: 922.0 ft.901.0 ft.
Traffic pattern: leftleft
Runway heading: 011 magnetic, 011 true191 magnetic, 191 true
Markings: NSTD, in poor conditionNSTD, in poor condition
Obstructions: 51 ft. tree, 474 ft. from runway, 120 ft. left of centerline, 9:1 slope to clear64 ft. tree, 1522 ft. from runway, 73 ft. right of centerline, 23:1 slope to clear

Airport Ownership and Management from official FAA records

Ownership: Privately-owned
Owner: LORETTA TRULSON
28825 AIRPORT LANE
ARDMORE, AL 35739
Phone 256-423-2736
Manager: LORETTA TRULSON
ARDMORE AVN, 28825 ARPT LANE
ARDMORE, AL 35739
Phone 256-423-2736

Additional Remarks

FOR CD CTC HUNTSVILLE APCH AT 256-542-2070, WHEN APCH CLSD CTC MEMPHIS ARTCC AT 901-368-8453.

Instrument Procedures

There are no published instrument procedures at 1M3.

Some nearby airports with instrument procedures:

KGZS - Abernathy Field Airport (14 nm NW)
KFYM - Fayetteville Municipal Airport (16 nm E)
KMDQ - Huntsville Executive Airport / Tom Sharp Jr Field (18 nm SE)
KDCU - Pryor Field Regional Airport (20 nm S)
KHUA - Redstone Army Airfield (21 nm SE)
 
Loc | Ops | Rwys | IFR | FBO | Links
Com | Nav | Svcs | Stats | Notes
Area around 1M3 (Ardmore Airport)
 
Road maps at: MapQuest Bing Google
 
Aerial photo
WARNING: Photo may not be current or correct
Aerial photo of 1M3 (Ardmore Airport)
Photo courtesy of the Huntsville Flight Center
Photo taken 26-Nov-2008

Do you have a better or more recent aerial photo of Ardmore Airport that you would like to share? If so, please send us your photo.

 
Sectional chart

 
Airport distance calculator
Flying to Ardmore Airport? Find the distance to fly.

From to 1M3

Sunrise and sunset
Times for 13-Aug-2020
 Local
(UTC-5)
 Zulu
(UTC)
Morning civil twilight05:4110:41
Sunrise06:0811:08
Sunset19:3700:37
Evening civil twilight20:0301:03

Current date and time
Zulu (UTC)  13-Aug-2020 21:23:25
Local (UTC-5)  13-Aug-2020 16:23:25
 
METAR
KGZS 
14nm NW 
132055Z AUTO 00000KT 10SM CLR 32/22 A2992 RMK A01
KFYM 
16nm E 
132055Z AUTO VRB04KT 10SM CLR 32/21 A2996 RMK A01
KMDQ 
18nm E 
132055Z AUTO 01004KT 10SM BKN045 BKN060 34/23 A2994 RMK A02 LTG DSNT E T03370227
KDCU 
20nm S 
132053Z AUTO VRB04G14KT 10SM CLR 33/21 A2992 RMK AO2 SLP124 T03330206 56030 $
KHSV 
20nm S 
132053Z 20005KT 10SM SCT055 SCT250 34/21 A2992 RMK AO2 SLP124 T03390211 56029
KHUA 
21nm SE 
132058Z AUTO 19003KT 10SM CLR 33/22 A2991 RMK AO2 LTG DSNT SW SLPNO T03330221
K2M2 
24nm NW 
132055Z AUTO VRB05G14KT 10SM BKN042 BKN048 BKN055 32/22 A2994 RMK A01
TAF
KHSV 
20nm S 
131738Z 1318/1418 VRB04KT P6SM FEW030 SCT250 FM140200 VRB02KT 5SM -TSRA BR BKN040CB OVC120 FM140300 VRB04KT 6SM -SHRA BKN040 BKN250 FM140400 VRB04KT P6SM SCT060 BKN250 FM140600 VRB03KT P6SM FEW040 SCT200 PROB30 1412/1414 5SM TSRA BR OVC025CB FM141400 00000KT 6SM -SHRA BR VCTS BKN030CB
NOTAMs
Click for the latest NOTAMs
NOTAMs are issued by the DoD/FAA and will open in a separate window not controlled by AirNav.

 

 
 

Aviation Businesses, Services, and Facilities

  
 Business Name 
 
 Contact 
 
 Services / Description 
 
Distance
 
Comments
  
Ardmore Aviation 256-423-2736
no information available

If you are affiliated with Ardmore Aviation and would like to show here your services, contact info, web link, logo, and more, click here
on airport  
   write
 

Would you like to see your business listed on this page?

 If your business provides an interesting product or service to pilots, flight crews, aircraft, or users of the Ardmore Airport, you should consider listing it here.  To start the listing process, click on the button below
 
Add a business
 

Other Pages about Ardmore Airport

Update a link
 
Copyright © AirNav, LLC. All rights reserved. Privacy Policy  Contact